| time (UTC) | temp F | wind direction | speed MPH | gust MPH | rain 1hr in | rain 24hr in | rain mn in | humidity % | barometer mb |
| 20260904145408 | 73 | 246 | 9.0 | 15.0 | 0.00 | 0.03 | 0.03 | 74 | 1015.4 |
| 20260904143908 | 73 | 248 | 10.0 | 29.0 | 0.00 | 0.03 | 0.03 | 73 | 1015.4 |
| 20260904142409 | 74 | 274 | 10.0 | 26.0 | 0.00 | 0.03 | 0.03 | 72 | 1015.2 |
| 20260904141909 | 74 | 303 | 10.0 | 29.0 | 0.00 | 0.03 | 0.03 | 70 | 1015.2 |
| 20260904141410 | 74 | 289 | 10.0 | 21.0 | 0.00 | 0.03 | 0.03 | 70 | 1015.2 |
| 20260904140910 | 74 | 247 | 10.0 | 26.0 | 0.00 | 0.03 | 0.03 | 69 | 1015.2 |
| 20260904140408 | 74 | 308 | 10.0 | 23.0 | 0.00 | 0.03 | 0.03 | 69 | 1015.2 |
| 20260904134909 | 75 | 277 | 15.0 | 29.0 | 0.00 | 0.03 | 0.03 | 67 | 1015.0 |
| 20260904133408 | 76 | 258 | 12.0 | 29.0 | 0.00 | 0.03 | 0.03 | 67 | 1014.9 |
| 20260904132910 | 76 | 219 | 12.0 | 33.0 | 0.00 | 0.03 | 0.03 | 67 | 1014.9 |
| 20260904132409 | 76 | 252 | 12.0 | 29.0 | 0.00 | 0.03 | 0.03 | 67 | 1014.9 |
| 20260904131909 | 76 | 272 | 10.0 | 25.0 | 0.00 | 0.03 | 0.03 | 67 | 1014.9 |
| 20260904130411 | 76 | 271 | 10.0 | 16.0 | 0.00 | 0.03 | 0.03 | 67 | 1014.9 |
| 20260904125911 | 76 | 298 | 9.0 | 26.0 | 0.00 | 0.03 | 0.03 | 67 | 1014.9 |
| 20260904125409 | 76 | 249 | 8.0 | 20.0 | 0.00 | 0.03 | 0.03 | 68 | 1014.9 |
| 20260904123409 | 75 | 244 | 9.0 | 24.0 | 0.00 | 0.03 | 0.03 | 70 | 1014.9 |
| 20260904122409 | 75 | 243 | 12.0 | 16.0 | 0.00 | 0.03 | 0.03 | 69 | 1015.1 |
| 20260904120908 | 75 | 243 | 12.0 | 15.0 | 0.00 | 0.03 | 0.03 | 71 | 1015.0 |
| 20260904120409 | 75 | 245 | 13.0 | 26.0 | 0.00 | 0.03 | 0.03 | 71 | 1015.0 |
| 20260904114409 | 75 | 230 | 9.0 | 38.0 | 0.00 | 0.03 | 0.03 | 71 | 1015.1 |
| 20260904113909 | 75 | 258 | 9.0 | 23.0 | 0.00 | 0.03 | 0.03 | 71 | 1014.9 |
| 20260904112910 | 75 | 243 | 9.0 | 24.0 | 0.00 | 0.03 | 0.03 | 73 | 1014.9 |
| 20260904110909 | 75 | 246 | 10.0 | 18.0 | 0.00 | 0.03 | 0.03 | 73 | 1015.2 |
| 20260904110408 | 75 | 245 | 10.0 | 17.0 | 0.00 | 0.03 | 0.03 | 74 | 1015.2 |
| 20260904105909 | 74 | 253 | 12.0 | 18.0 | 0.00 | 0.03 | 0.03 | 74 | 1015.2 |
| 20260904104909 | 75 | 257 | 13.0 | 21.0 | 0.00 | 0.03 | 0.03 | 73 | 1015.1 |
| 20260904104410 | 75 | 236 | 13.0 | 28.0 | 0.00 | 0.03 | 0.03 | 75 | 1015.1 |
| 20260904103909 | 75 | 243 | 9.0 | 32.0 | 0.00 | 0.03 | 0.03 | 73 | 1015.4 |
| 20260904103410 | 74 | 219 | 8.0 | 21.0 | 0.00 | 0.03 | 0.03 | 77 | 1015.4 |
| 20260904101910 | 73 | 233 | 10.0 | 18.0 | 0.00 | 0.03 | 0.03 | 78 | 1015.5 |
| 20260904101410 | 73 | 207 | 10.0 | 16.0 | 0.00 | 0.03 | 0.03 | 80 | 1015.5 |
| 20260904094908 | 72 | 234 | 7.0 | 17.0 | 0.00 | 0.03 | 0.03 | 81 | 1016.0 |
| 20260904094409 | 72 | 215 | 7.0 | 15.0 | 0.00 | 0.03 | 0.03 | 82 | 1016.0 |
| 20260904093408 | 71 | 261 | 7.0 | 18.0 | 0.00 | 0.03 | 0.03 | 82 | 1015.9 |
| 20260904092409 | 71 | 226 | 8.0 | 14.0 | 0.00 | 0.03 | 0.03 | 83 | 1016.1 |
| 20260904091908 | 71 | 229 | 7.0 | 16.0 | 0.00 | 0.03 | 0.03 | 84 | 1016.1 |
| 20260904091409 | 71 | 249 | 7.0 | 23.0 | 0.00 | 0.03 | 0.03 | 83 | 1016.1 |
| 20260904090409 | 71 | 248 | 7.0 | 17.0 | 0.00 | 0.03 | 0.03 | 83 | 1016.0 |
| 20260904084408 | 71 | 258 | 6.0 | 10.0 | 0.00 | 0.03 | 0.03 | 83 | 1015.8 |
| 20260904083408 | 71 | 232 | 7.0 | 16.0 | 0.00 | 0.03 | 0.03 | 83 | 1015.6 |
| 20260904082909 | 71 | 222 | 8.0 | 15.0 | 0.00 | 0.03 | 0.03 | 84 | 1015.6 |
| 20260904081909 | 71 | 227 | 8.0 | 17.0 | 0.00 | 0.03 | 0.03 | 83 | 1015.6 |
| 20260904080909 | 71 | 245 | 7.0 | 20.0 | 0.00 | 0.03 | 0.03 | 84 | 1015.7 |
| 20260904075911 | 71 | 238 | 6.0 | 16.0 | 0.00 | 0.03 | 0.03 | 84 | 1015.7 |
| 20260904074408 | 71 | 235 | 7.0 | 12.0 | 0.00 | 0.03 | 0.03 | 85 | 1015.8 |
| 20260904073909 | 71 | 217 | 7.0 | 12.0 | 0.00 | 0.03 | 0.03 | 85 | 1016.1 |
| 20260904073408 | 71 | 236 | 7.0 | 13.0 | 0.00 | 0.03 | 0.03 | 86 | 1016.1 |
| 20260904072408 | 70 | 216 | 7.0 | 14.0 | 0.00 | 0.03 | 0.03 | 86 | 1016.1 |
| 20260904071908 | 70 | 225 | 6.0 | 15.0 | 0.00 | 0.03 | 0.03 | 87 | 1016.1 |
| 20260904065409 | 70 | 214 | 7.0 | 15.0 | 0.00 | 0.03 | 0.03 | 87 | 1016.4 |
| 20260904064408 | 70 | 205 | 7.0 | 12.0 | 0.00 | 0.03 | 0.03 | 87 | 1016.4 |
| 20260904062408 | 69 | 191 | 6.0 | 12.0 | 0.00 | 0.03 | 0.03 | 88 | 1016.5 |
| 20260904061908 | 69 | 198 | 6.0 | 14.0 | 0.00 | 0.03 | 0.03 | 88 | 1016.5 |
| 20260904060909 | 69 | 208 | 5.0 | 10.0 | 0.00 | 0.03 | 0.03 | 88 | 1016.6 |
| 20260904060408 | 69 | 229 | 5.0 | 15.0 | 0.00 | 0.03 | 0.03 | 88 | 1016.6 |
| 20260904055911 | 69 | 210 | 6.0 | 12.0 | 0.00 | 0.03 | 0.03 | 88 | 1016.6 |
| 20260904053909 | 69 | 243 | 6.0 | 10.0 | 0.00 | 0.03 | 0.03 | 88 | 1017.0 |
| 20260904053408 | 69 | 230 | 6.0 | 9.0 | 0.00 | 0.03 | 0.03 | 88 | 1017.0 |
| 20260904051908 | 69 | 232 | 6.0 | 13.0 | 0.00 | 0.03 | 0.03 | 89 | 1017.1 |
| 20260904050408 | 69 | 240 | 6.0 | 13.0 | 0.00 | 0.03 | 0.03 | 89 | 1017.1 |
| 20260904045408 | 69 | 201 | 5.0 | 10.0 | 0.00 | 0.03 | 0.03 | 89 | 1017.2 |
| 20260904044409 | 69 | 225 | 6.0 | 8.0 | 0.00 | 0.03 | 0.03 | 89 | 1017.2 |
| 20260904042910 | 69 | 236 | 5.0 | 8.0 | 0.00 | 0.03 | 0.03 | 89 | 1017.3 |
| 20260904041908 | 68 | 209 | 3.0 | 9.0 | 0.00 | 0.03 | 0.03 | 90 | 1017.4 |
| 20260904040908 | 68 | 202 | 4.0 | 7.0 | 0.00 | 0.03 | 0.03 | 89 | 1017.6 |
| 20260904040408 | 69 | 230 | 5.0 | 8.0 | 0.00 | 0.03 | 0.03 | 89 | 1017.6 |
| 20260904034909 | 68 | 215 | 5.0 | 8.0 | 0.00 | 0.03 | 0.03 | 89 | 1017.7 |
| 20260904032408 | 68 | 246 | 5.0 | 12.0 | 0.00 | 0.03 | 0.03 | 90 | 1018.0 |
| 20260904031409 | 68 | 219 | 5.0 | 9.0 | 0.00 | 0.03 | 0.03 | 90 | 1018.0 |
| 20260904025408 | 68 | 235 | 6.0 | 13.0 | 0.00 | 0.03 | 0.03 | 90 | 1018.3 |
| 20260904024409 | 68 | 215 | 5.0 | 7.0 | 0.00 | 0.03 | 0.03 | 90 | 1018.3 |
| 20260904023908 | 68 | 209 | 5.0 | 8.0 | 0.00 | 0.03 | 0.03 | 90 | 1018.4 |
| 20260904023408 | 68 | 210 | 5.0 | 10.0 | 0.00 | 0.03 | 0.03 | 90 | 1018.4 |
| 20260904022909 | 68 | 230 | 6.0 | 10.0 | 0.00 | 0.03 | 0.03 | 90 | 1018.4 |
| 20260904022408 | 68 | 225 | 6.0 | 10.0 | 0.00 | 0.03 | 0.03 | 91 | 1018.7 |
| 20260904021908 | 68 | 209 | 5.0 | 9.0 | 0.00 | 0.03 | 0.03 | 91 | 1018.7 |
| 20260904020908 | 67 | 225 | 5.0 | 8.0 | 0.00 | 0.03 | 0.03 | 91 | 1018.7 |
| 20260904020408 | 67 | 226 | 5.0 | 10.0 | 0.00 | 0.03 | 0.03 | 91 | 1018.7 |
| 20260904015910 | 67 | 199 | 5.0 | 7.0 | 0.00 | 0.03 | 0.03 | 91 | 1018.7 |
| 20260904015408 | 67 | 237 | 6.0 | 7.0 | 0.00 | 0.03 | 0.03 | 91 | 1018.9 |
| 20260904014408 | 68 | 214 | 6.0 | 15.0 | 0.00 | 0.03 | 0.03 | 90 | 1018.9 |
| 20260904013908 | 68 | 229 | 6.0 | 12.0 | 0.00 | 0.03 | 0.03 | 90 | 1019.1 |
| 20260904013408 | 68 | 242 | 6.0 | 13.0 | 0.00 | 0.03 | 0.03 | 91 | 1019.1 |
| 20260904012909 | 68 | 237 | 6.0 | 12.0 | 0.00 | 0.03 | 0.03 | 91 | 1019.1 |
| 20260904012408 | 68 | 197 | 6.0 | 14.0 | 0.00 | 0.03 | 0.03 | 91 | 1019.2 |
| 20260904011407 | 68 | 203 | 7.0 | 10.0 | 0.00 | 0.03 | 0.03 | 91 | 1019.2 |
| 20260904010909 | 68 | 205 | 5.0 | 14.0 | 0.00 | 0.03 | 0.03 | 92 | 1019.4 |
| 20260904010408 | 68 | 205 | 5.0 | 14.0 | 0.00 | 0.03 | 0.03 | 92 | 1019.4 |
| 20260904005909 | 68 | 238 | 5.0 | 9.0 | 0.00 | 0.03 | 0.03 | 92 | 1019.4 |
| 20260904005408 | 67 | 207 | 5.0 | 9.0 | 0.00 | 0.03 | 0.03 | 92 | 1019.3 |
| 20260904004908 | 67 | 219 | 6.0 | 10.0 | 0.00 | 0.03 | 0.03 | 92 | 1019.3 |
| 20260904004408 | 67 | 231 | 6.0 | 12.0 | 0.02 | 0.03 | 0.03 | 92 | 1019.3 |
| 20260904002910 | 68 | 249 | 7.0 | 10.0 | 0.02 | 0.03 | 0.03 | 93 | 1019.5 |
| 20260904001408 | 68 | 218 | 5.0 | 13.0 | 0.03 | 0.03 | 0.03 | 93 | 1019.6 |
| 20260904000908 | 68 | 195 | 5.0 | 13.0 | 0.03 | 0.03 | 0.03 | 92 | 1019.8 |
| 20260903235909 | 68 | 222 | 3.0 | 8.0 | 0.03 | 0.03 | 0.03 | 92 | 1019.8 |
| 20260903235408 | 68 | 230 | 3.0 | 13.0 | 0.03 | 0.03 | 0.03 | 91 | 1020.0 |
| 20260903234908 | 68 | 232 | 3.0 | 10.0 | 0.03 | 0.03 | 0.03 | 91 | 1020.0 |
| 20260903234408 | 68 | 244 | 2.0 | 9.0 | 0.01 | 0.01 | 0.01 | 90 | 1020.0 |
| 20260903233408 | 69 | 323 | 2.0 | 5.0 | 0.01 | 0.01 | 0.01 | 90 | 1019.9 |
| 20260903232910 | 69 | 290 | 4.0 | 5.0 | 0.01 | 0.01 | 0.01 | 89 | 1019.9 |
| 20260903230908 | 69 | 233 | 6.0 | 12.0 | 0.00 | 0.00 | 0.00 | 87 | 1019.8 |
| 20260903230408 | 69 | 236 | 7.0 | 13.0 | 0.00 | 0.00 | 0.00 | 86 | 1019.8 |
| 20260903224908 | 70 | 232 | 6.0 | 10.0 | 0.00 | 0.00 | 0.00 | 85 | 1019.9 |
| 20260903223908 | 69 | 209 | 5.0 | 8.0 | 0.00 | 0.00 | 0.00 | 85 | 1020.0 |
| 20260903223408 | 69 | 205 | 5.0 | 14.0 | 0.00 | 0.00 | 0.00 | 85 | 1020.0 |
| 20260903222408 | 69 | 242 | 6.0 | 8.0 | 0.00 | 0.00 | 0.00 | 86 | 1020.3 |
| 20260903221908 | 69 | 220 | 6.0 | 12.0 | 0.00 | 0.00 | 0.00 | 86 | 1020.3 |
| 20260903220909 | 69 | 203 | 5.0 | 12.0 | 0.00 | 0.00 | 0.00 | 86 | 1020.3 |
| 20260903215925 | 69 | 213 | 5.0 | 10.0 | 0.00 | 0.00 | 0.00 | 86 | 1020.3 |
| 20260903214908 | 69 | 180 | 5.0 | 9.0 | 0.00 | 0.00 | 0.00 | 86 | 1020.5 |
| 20260903213908 | 69 | 189 | 5.0 | 7.0 | 0.00 | 0.00 | 0.00 | 86 | 1020.5 |
| 20260903212408 | 69 | 225 | 5.0 | 8.0 | 0.00 | 0.00 | 0.00 | 86 | 1020.6 |
| 20260903211908 | 69 | 239 | 5.0 | 8.0 | 0.00 | 0.00 | 0.00 | 86 | 1020.6 |
| 20260903211408 | 69 | 226 | 6.0 | 6.0 | 0.00 | 0.00 | 0.00 | 86 | 1020.6 |
| 20260903210908 | 69 | 254 | 6.0 | 13.0 | 0.00 | 0.00 | 0.00 | 86 | 1020.6 |
| 20260903210407 | 69 | 215 | 7.0 | 10.0 | 0.00 | 0.00 | 0.00 | 85 | 1020.6 |
| 20260903205910 | 69 | 239 | 7.0 | 12.0 | 0.00 | 0.00 | 0.00 | 86 | 1020.6 |
| 20260903204909 | 69 | 212 | 5.0 | 14.0 | 0.00 | 0.00 | 0.00 | 86 | 1020.7 |
| 20260903204409 | 69 | 227 | 5.0 | 13.0 | 0.00 | 0.00 | 0.00 | 87 | 1020.7 |
| 20260903203908 | 69 | 217 | 6.0 | 10.0 | 0.00 | 0.00 | 0.00 | 87 | 1020.7 |
| 20260903202410 | 69 | 230 | 5.0 | 9.0 | 0.00 | 0.00 | 0.00 | 87 | 1020.5 |
| 20260903194908 | 69 | 207 | 4.0 | 9.0 | 0.00 | 0.00 | 0.00 | 88 | 1020.7 |
| 20260903193909 | 69 | 194 | 5.0 | 9.0 | 0.00 | 0.00 | 0.00 | 87 | 1020.7 |
| 20260903193408 | 69 | 199 | 5.0 | 8.0 | 0.00 | 0.00 | 0.00 | 87 | 1020.7 |
| 20260903192410 | 69 | 222 | 6.0 | 10.0 | 0.00 | 0.00 | 0.00 | 87 | 1020.6 |
| 20260903191908 | 69 | 229 | 5.0 | 10.0 | 0.00 | 0.00 | 0.00 | 87 | 1020.6 |
| 20260903191408 | 69 | 215 | 5.0 | 8.0 | 0.00 | 0.00 | 0.00 | 86 | 1020.6 |
| 20260903190408 | 69 | 190 | 5.0 | 8.0 | 0.00 | 0.00 | 0.00 | 86 | 1020.8 |
| 20260903185908 | 69 | 233 | 5.0 | 7.0 | 0.00 | 0.00 | 0.00 | 86 | 1020.8 |
| 20260903181911 | 69 | 213 | 6.0 | 13.0 | 0.00 | 0.00 | 0.00 | 84 | 1020.7 |
| 20260903180908 | 69 | 232 | 6.0 | 12.0 | 0.00 | 0.00 | 0.00 | 84 | 1020.8 |
| 20260903173409 | 70 | 220 | 5.0 | 10.0 | 0.00 | 0.00 | 0.00 | 81 | 1020.9 |
| 20260903172910 | 70 | 241 | 7.0 | 10.0 | 0.00 | 0.00 | 0.00 | 81 | 1020.9 |
| 20260903170909 | 71 | 224 | 6.0 | 13.0 | 0.00 | 0.00 | 0.00 | 79 | 1020.5 |
| 20260903164908 | 71 | 229 | 6.0 | 18.0 | 0.00 | 0.00 | 0.00 | 79 | 1020.6 |
| 20260903162909 | 70 | 228 | 4.0 | 15.0 | 0.00 | 0.00 | 0.00 | 80 | 1020.7 |
| 20260903161908 | 70 | 271 | 4.0 | 7.0 | 0.00 | 0.00 | 0.00 | 80 | 1020.6 |
| 20260903160408 | 70 | 213 | 5.0 | 8.0 | 0.00 | 0.00 | 0.00 | 80 | 1020.7 |
| 20260903155408 | 70 | 205 | 6.0 | 9.0 | 0.00 | 0.00 | 0.00 | 80 | 1020.7 |
| 20260903153909 | 70 | 240 | 6.0 | 14.0 | 0.00 | 0.00 | 0.00 | 79 | 1020.8 |
| 20260903151908 | 70 | 214 | 7.0 | 15.0 | 0.00 | 0.00 | 0.00 | 80 | 1020.9 |
| 20260903150407 | 70 | 247 | 6.0 | 15.0 | 0.00 | 0.00 | 0.00 | 81 | 1021.0 |